Meteopurmerend
purmerend
Purmerend - Baaienwijk



My webcam  My webcam


Onweer radar Meer informatie blitzortung!


Regen radar Meer informatie rain snow radar


Bezoek onze andere website:

CandyAppleRed WebdesignWebdesign Purmerend Candy Apple Red

MeteopurmerendBlog

Template documentation
and downloads



We konden geen weer-waarchuwingen ophalen. Ga rechtstreeks naar de Meteoalarm site : www.meteoalarm.eu en controleer daar .

15 daagse weersverwachting Traiskirchen (AT)

  • Overzicht
  • Per uur
  • 15 dagen
  • Extra
  • Vergelijk
  • Kaarten
  • Dagkaart
  • Meer »
  • Info
  • Statistieken
  • Directe link
    Temp 6h Neerslag Wind  
 05:29     20:34    Daglengte: 15:05 Vandaag
14:00
28°
 
2
20:00
26°
 
2
 05:31     20:33    Daglengte: 15:02 Morgen
02:00
21°
 
2
08:00
21°
 
2
14:00
30°
 
2
20:00
27°
 
2
 05:32     20:31    Daglengte: 14:59 Zaterdag 31 Jul
02:00
20°
 
1
08:00
22°
4.0 mm
5
14:00
25°
8.0 mm
4
20:00
23°
 
2
 05:33     20:30    Daglengte: 14:57 Zondag 01 Aug
02:00
19°
16.2 mm
2
08:00
20°
5.6 mm
3
Locatie info
Region: Niederösterreich
Latitude: 48.0138°N
Longitude: 16.2947°E
204 masl
Postcode: 2514
Temp/Neerslag /Baro Onweer/Dauwpunt
    Temp Baro 1h Neerslag Dauwpunt Wind UV Bewolking  
 05:29     20:34    Daglengte: 15:05 Vandaag
12:00
27°
1015.2 hPa   13.6°
2
Windvlaag: 0.2 m/s
0%
13:00
28°
Voelt als: 27.6°
1014.8 hPa   13.3°
3
Windvlaag: 1.7 m/s
1%
14:00
28°
Voelt als: 28.0°
1014.2 hPa   13.6°
2
Windvlaag: 3 m/s
4%
15:00
28°
Voelt als: 28.1°
1013.7 hPa   13.9°
2
Windvlaag: 3.2 m/s
10%
16:00
29°
Voelt als: 28.4°
1013.1 hPa   14.1°
2
Windvlaag: 1.6 m/s
6%
17:00
29°
Voelt als: 28.5°
1012.5 hPa   14.4°
3
Windvlaag: 0.6 m/s
9%
18:00
28°
Voelt als: 28.2°
1012.2 hPa   15.1°
3
Windvlaag: 1.9 m/s
11%
19:00
27°
1012.1 hPa   15.4°
3
Windvlaag: 3.4 m/s
11%
20:00
26°
1012.2 hPa   16.2°
2
Windvlaag: 3.8 m/s
18%
21:00
25°
1012.4 hPa   18.0°
1
Windvlaag: 3.1 m/s
19%
22:00
24°
1012.6 hPa   18.8°
1
Windvlaag: 1.9 m/s
25%
23:00
23°
1012.8 hPa   18.4°
2
Windvlaag: 1.8 m/s
11%
 05:31     20:33    Daglengte: 15:02 Morgen
00:00
23°
1012.8 hPa   18.8°
2
Windvlaag: 1.4 m/s
15%
01:00
22°
1012.7 hPa   17.3°
2
Windvlaag: 0.2 m/s
13%
02:00
21°
1012.5 hPa
13%
15.9°
2
Windvlaag: 0.2 m/s
14%
03:00
20°
1012.5 hPa
13%
15.2°
2
Windvlaag: -0.2 m/s
18%
04:00
20°
1012.2 hPa
15%
14.9°
1
Windvlaag: -0.4 m/s
17%
05:00
20°
1012.4 hPa
15%
14.4°
1
Windvlaag: -1.5 m/s
20%
06:00
19°
1012.5 hPa
16%
15.7°
1
Windvlaag: -1.6 m/s
22%
07:00
20°
1012.7 hPa
13%
17.0°
1
Windvlaag: -0.8 m/s
20%
08:00
21°
1012.8 hPa
13%
17.8°
2
Windvlaag: 3.3 m/s
19%
09:00
23°
1012.9 hPa
13%
16.2°
2
Windvlaag: 3.5 m/s
19%
10:00
25°
1012.6 hPa
13%
15.2°
2
Windvlaag: 3.5 m/s
19%
11:00
26°
1012.4 hPa
13%
14.7°
2
Windvlaag: 3.3 m/s
17%
12:00
28°
1011.8 hPa
14%
14.6°
1
Windvlaag: 1.5 m/s
14%
13:00
29°
Voelt als: 28.5°
1011.0 hPa
16%
14.6°
2
Windvlaag: 3.1 m/s
11%
14:00
30°
Voelt als: 29.4°
1010.2 hPa
14%
15.1°
2
Windvlaag: 3.8 m/s
9%
15:00
30°
Voelt als: 30.2°
1009.5 hPa
14%
15.5°
2
Windvlaag: 3.6 m/s
13%
16:00
31°
Voelt als: 30.6°
1008.8 hPa
24%
15.5°
2
Windvlaag: 3.5 m/s
11%
17:00
29°
Voelt als: 28.1°
1008.9 hPa
82%
13.3°
2
Windvlaag: 3.3 m/s
9%
18:00
29°
Voelt als: 28.5°
1008.5 hPa
18%
14.0°
2
Windvlaag: 3.7 m/s
10%
19:00
29°
Voelt als: 28.7°
1008.2 hPa
14%
14.9°
2
Windvlaag: 3.3 m/s
11%
20:00
27°
1008.1 hPa
14%
18.8°
2
Windvlaag: 3.5 m/s
6%
21:00
24°
1008.2 hPa
14%
19.6°
1
Windvlaag: 3.9 m/s
1%
22:00
23°
1008.5 hPa
14%
19.5°
2
Windvlaag: 4.2 m/s
7%
23:00
22°
1008.4 hPa
14%
19.6°
2
Windvlaag: 3.4 m/s
13%
 05:32     20:31    Daglengte: 14:59 Zaterdag 31 Jul
00:00
21°
1008.2 hPa
14%
19.4°
2
Windvlaag: 2.7 m/s
34%
01:00
21°
1007.8 hPa
14%
18.9°
2
Windvlaag: 3 m/s
29%
02:00
20°
1007.6 hPa
26%
18.6°
1
Windvlaag: 2.8 m/s
6%
03:00
20°
1007.5 hPa
21%
18.1°
1
Windvlaag: 2.7 m/s
32%
04:00
20°
1007.3 hPa
29%
17.2°
2
Windvlaag: 1.8 m/s
33%
05:00
20°
1007.1 hPa 0.9 mm
25%
14.0°
2
Windvlaag: -0.2 m/s
74%
06:00
21°
1008.1 hPa
21%
16.3°
4
Windvlaag: -1.1 m/s
49%
07:00
21°
1008.8 hPa 1.1 mm
30%
14.9°
5
Windvlaag: -3.8 m/s
78%
08:00
22°
1009.5 hPa 2.0 mm
87%
13.7°
5
Windvlaag: -3.5 m/s
97%
09:00
22°
1010.0 hPa 4.5 mm
100%
12.2°
5
Windvlaag: -2.8 m/s
94%
10:00
22°
1010.5 hPa 1.3 mm
100%
11.6°
5
Windvlaag: -3.1 m/s
87%
11:00
22°
1010.5 hPa 1.4 mm
100%
11.7°
5
Windvlaag: -3.9 m/s
88% warningclass
12:00
23°
1010.5 hPa 0.8 mm
96%
11.9°
5
Windvlaag: -4.1 m/s
90%
13:00
24°
1010.0 hPa
45%
12.0°
5
Windvlaag: -3.9 m/s
84%
14:00
25°
1009.6 hPa
27%
12.2°
4
Windvlaag: -4.3 m/s
69%
15:00
26°
1009.0 hPa
29%
12.0°
3
Windvlaag: -3.9 m/s
69%
16:00
25°
1008.6 hPa
72%
13.6°
3
Windvlaag: -3.4 m/s
64%
17:00
25°
1009.3 hPa
32%
22.4°
2
Windvlaag: -3.3 m/s
57%
18:00
24°
1008.7 hPa
35%
21.7°
2
Windvlaag: -3.9 m/s
54%
19:00
24°
1008.6 hPa
29%
20.5°
2
Windvlaag: -3.1 m/s
58%
20:00
23°
1008.9 hPa
41%
19.9°
2
Windvlaag: -1.7 m/s
72%
21:00
22°
1008.9 hPa
32%
19.3°
2
Windvlaag: -0.5 m/s
76%
22:00
22°
1009.1 hPa
21%
18.4°
2
Windvlaag: -0.2 m/s
87%
23:00
21°
1008.9 hPa 5.5 mm
23%
16.7°
2
Windvlaag: 0.6 m/s
77%
 05:33     20:30    Daglengte: 14:57 Zondag 01 Aug
00:00
20°
1008.8 hPa
30%
16.6°
3
Windvlaag: 0.1 m/s
64%
01:00
20°
1008.5 hPa 5.4 mm
50%
16.7°
2
Windvlaag: -0.5 m/s
72%
02:00
19°
1008.4 hPa 5.3 mm
97%
16.6°
2
Windvlaag: -0 m/s
68%
03:00
20°
1007.2 hPa
52%
16.7°
2
Windvlaag: 6.8 m/s
60%
04:00
19°
1006.4 hPa
27%
16.2°
1
Windvlaag: 5.6 m/s
17%
05:00
19°
1006.2 hPa 5.6 mm
83%
16.0°
2
Windvlaag: 4.5 m/s
36%
06:00
19°
1005.3 hPa
26%
15.9°
2
Windvlaag: 10.6 m/s
45%
07:00
19°
1004.9 hPa
22%
15.4°
1
Windvlaag: 7 m/s
72%
08:00
20°
1005.0 hPa
21%
15.8°
3
Windvlaag: 6.1 m/s
95%
09:00
18°
1007.3 hPa 16.1 mm
100%
14.0°
3
Windvlaag: 4.8 m/s
92%
10:00
19°
1007.0 hPa 16.1 mm
100%
14.4°
3
Windvlaag: 4.1 m/s
99%
11:00
21°
1005.8 hPa 16.1 mm
100%
14.8°
5
Windvlaag: 4.9 m/s
92%
Temp/Neerslag /Baro Onweer/Dauwpunt
    Temp Baro Neerslag Dauwpunt Wind Bewolking  
 05:29     20:34    Daglengte: 15:05 Vandaag
14:00
28°
Voelt als: 28.0°
1014.2 hPa   13.6°
2
4%
17:00
29°
Voelt als: 28.5°
1012.5 hPa   14.4°
3
9%
20:00
26°
1012.2 hPa   16.2°
2
18%
23:00
23°
1012.8 hPa   18.4°
2
11%
 05:31     20:33    Daglengte: 15:02 Morgen
02:00
21°
1012.5 hPa   15.9°
2
14%
05:00
20°
1012.4 hPa   14.4°
1
20%
08:00
21°
1012.8 hPa   17.8°
2
19%
11:00
26°
1012.4 hPa   14.7°
2
17%
14:00
30°
Voelt als: 29.4°
1010.2 hPa   15.1°
2
9%
17:00
29°
Voelt als: 28.1°
1008.9 hPa   13.3°
2
9%
20:00
27°
1008.1 hPa   18.8°
2
6%
23:00
22°
1008.4 hPa   19.6°
2
13%
 05:32     20:31    Daglengte: 14:59 Zaterdag 31 Jul
02:00
20°
1007.6 hPa   18.6°
1
6%
05:00
20°
1007.1 hPa 0.9 mm 14.0°
2
74%
08:00
22°
1009.5 hPa 3.0 mm 13.7°
5
97%
11:00
22°
1010.5 hPa 7.2 mm 11.7°
5
88% warningclass
14:00
25°
1009.6 hPa 0.8 mm 12.2°
4
69%
17:00
25°
1009.3 hPa   22.4°
2
57%
20:00
23°
1008.9 hPa   19.9°
2
72%
23:00
21°
1008.9 hPa 5.5 mm 16.7°
2
77%
 05:33     20:30    Daglengte: 14:57 Zondag 01 Aug
02:00
19°
1008.4 hPa 10.7 mm 16.6°
2
68%
05:00
19°
1006.2 hPa 5.6 mm 16.0°
2
36%
08:00
20°
1005.0 hPa   15.8°
3
95%
11:00
21°
1005.8 hPa 48.2 mm 14.8°
5
92%
14:00
25°
1003.6 hPa 48.2 mm 16.0°
3
67%
17:00
16°
1010.0 hPa 28.9 mm 14.3°
7
1%
20:00
15°
1011.4 hPa 31.8 mm 13.1°
6
1%
23:00
15°
1012.5 hPa 31.8 mm 11.5°
5
1%
 05:34     20:28    Daglengte: 14:54 Maandag 02 Aug
02:00
15°
1012.8 hPa 31.8 mm 11.3°
5
1%
05:00
16°
1013.7 hPa 31.8 mm 10.8°
4
1%
08:00
18°
1014.5 hPa 31.8 mm 11.2°
4
1%
11:00
23°
1015.0 hPa 31.8 mm 10.1°
5
0%
14:00
25°
1014.4 hPa 31.8 mm 10.2°
4
0%
17:00
25°
1013.9 hPa 31.8 mm 10.4°
3
0%
20:00
22°
1014.4 hPa 31.8 mm 12.8°
2
0%
23:00
19°
1015.6 hPa 31.8 mm 12.6°
1
0%
 05:36     20:27    Daglengte: 14:51 Dinsdag 03 Aug
02:00
18°
1016.3 hPa 31.8 mm 12.3°
1
1%
05:00
18°
1016.3 hPa 31.8 mm 11.8°
1
1%
08:00
19°
1017.4 hPa 32.5 mm 14.5°
0
1%
11:00
21°
1017.6 hPa 33.6 mm 15.4°
1
1%
14:00
24°
1015.8 hPa 33.7 mm 14.1°
1
1%
17:00
26°
1013.6 hPa 33.7 mm 13.6°
1
1%
20:00
23°
1013.0 hPa 33.7 mm 14.9°
2
1%
23:00
20°
1013.6 hPa 33.7 mm 14.7°
0
1%
 05:37     20:25    Daglengte: 14:48 Woensdag 04 Aug
02:00
18°
1013.2 hPa 34.6 mm 16.4°
1
1%
05:00
17°
1012.3 hPa 34.7 mm 15.6°
1
1%
08:00
19°
1012.8 hPa 34.7 mm 15.8°
1
1%
11:00
22°
1012.4 hPa 34.7 mm 15.1°
1
1%
14:00
27°
1011.3 hPa 34.7 mm 15.0°
0
1%
17:00
26°
1010.8 hPa 34.7 mm 14.9°
3
1%
20:00
22°
1012.1 hPa 34.7 mm 17.0°
4
1%
23:00
20°
1012.5 hPa 34.9 mm 15.8°
3
1%
 05:38     20:24    Daglengte: 14:46 Donderdag 05 Aug
02:00
18°
1012.7 hPa 35.8 mm 16.5°
3
1%
05:00
17°
1012.5 hPa 36.4 mm 15.2°
3
1%
08:00
18°
1012.8 hPa 36.6 mm 15.2°
3
1%
11:00
20°
1013.3 hPa   13.8°
5
1%
14:00
22°
1012.8 hPa 73.4 mm 13.9°
6
1%
20:00
19°
1012.7 hPa 73.4 mm 13.9°
5
1%
 05:40     20:22    Daglengte: 14:42 Vrijdag 06 Aug
02:00
16°
1013.7 hPa 73.4 mm 12.4°
3
1%
08:00
17°
1012.0 hPa 73.4 mm 13.0°
2
1%
14:00
16°
1010.3 hPa 76.0 mm 15.1°
1
1%
20:00
16°
1010.2 hPa 84.2 mm 13.8°
5
1%
 05:41     20:21    Daglengte: 14:40 Zaterdag 07 Aug
02:00
15°
1011.9 hPa 91.9 mm 13.9°
5
1%
08:00
16°
1013.9 hPa 94.9 mm 13.9°
5
1%
14:00
24°
1014.6 hPa 95.2 mm 12.2°
4
0%
20:00
21°
1014.7 hPa 95.2 mm 12.6°
2
0%
 05:42     20:19    Daglengte: 14:37 Zondag 08 Aug
02:00
17°
1014.5 hPa 95.2 mm 12.3°
1
0%
08:00
20°
1017.3 hPa   13.7°
2
36%
14:00
27°
Voelt als: 27.1°
1016.5 hPa 0.3 mm 13.5°
1
37%
20:00
23°
1016.2 hPa   14.5°
1
36%
 05:44     20:18    Daglengte: 14:34 Maandag 09 Aug
02:00
19°
1018.1 hPa 0.2 mm 13.1°
1
27%
08:00
21°
1018.7 hPa   13.6°
1
28%
14:00
29°
Voelt als: 28.3°
1017.6 hPa 0.2 mm 14.1°
1
24%
20:00
24°
1017.4 hPa 0.5 mm 15.2°
1
37%
 05:45     20:16    Daglengte: 14:31 Dinsdag 10 Aug
02:00
20°
1019.0 hPa 0.5 mm 13.7°
2
43%
08:00
21°
1019.8 hPa 0.2 mm 14.4°
2
30%
14:00
29°
Voelt als: 28.9°
1018.3 hPa 0.2 mm 14.5°
2
30%
20:00
24°
1017.6 hPa 0.6 mm 15.4°
2
39%
 05:46     20:14    Daglengte: 14:28 Woensdag 11 Aug
02:00
20°
1019.6 hPa 0.6 mm 14.2°
2
40%
08:00
21°
1020.1 hPa 0.3 mm 14.5°
2
38%
14:00
28°
Voelt als: 28.0°
1018.2 hPa 0.3 mm 14.1°
2
33%
20:00
23°
1017.8 hPa 0.5 mm 14.2°
3
44%
 05:48     20:13    Daglengte: 14:25 Donderdag 12 Aug
02:00
19°
1019.3 hPa 0.6 mm 13.1°
2
38%
08:00
20°
1019.2 hPa 0.2 mm 13.6°
2
38%
14:00
28°
Voelt als: 27.6°
1017.0 hPa 0.4 mm 13.1°
1
38%
20:00
24°
1016.0 hPa 0.3 mm 14.1°
2
36%
 05:49     20:11    Daglengte: 14:22 Vrijdag 13 Aug
02:00
19°
1017.3 hPa 1.7 mm 13.3°
2
38%
08:00
20°
1017.5 hPa 0.3 mm 14.0°
2
43%
  CAPE Lifted Index Hail Supercell Tornado SRH 3km CL BTM PRES CL TOP PRES Swiss DWD icon SMHI TS
 05:29     20:34    Daglengte: 15:05 Vandaag
12:00 0 J/kg 3.3 K 0 % 0 % 0 % 0 m²/s² 0 0 9.21 2
13:00 0 J/kg 2.9 K 0 % 0 % 0 % 0 m²/s² 0 0 8.81 2
14:00 0 J/kg 2.5 K 0 % 0 % 0 % 0 m²/s² 0 0 8.59 1
15:00 0 J/kg 2.4 K 0 % 0 % 0 % 0 m²/s² 0 0 8.67 2
16:00 0 J/kg 2.1 K 0 % 0 % 0 % 0 m²/s² 0 0 7.71 2
17:00 1 J/kg 1.6 K 0 % 0 % 0 % 0 m²/s² 0 0 6.55 2
18:00 0 J/kg 1.3 K 0 % 0 % 0 % 0 m²/s² 0 0 6.25 2
19:00 0 J/kg 1.1 K 0 % 0 % 0 % 0 m²/s² 0 0 4.82 2
20:00 10 J/kg 0.1 K 0 % 0 % 0 % 0 m²/s² 0 0 3.1 2
21:00 0 J/kg -1.1 K 0 % 0 % 0 % 0 m²/s² 0 0 1.21 2
22:00 0 J/kg -1.6 K 0 % 0 % 0 % 0 m²/s² 0 0 0.08 2
23:00 306 J/kg -2.6 K 0 % 0 % 0 % 0 m²/s² 0 0 -0.59 2
 05:31     20:33    Daglengte: 15:02 Morgen
00:00 127 J/kg -2.0 K 0 % 0 % 0 % 0 m²/s² 0 0 -0.77 2
01:00 267 J/kg -2.5 K 0 % 0 % 0 % 0 m²/s² 0 0 -1.48 2
02:00 276 J/kg -2.6 K 0 % 0 % 0 % 0 m²/s² 0 0 -1.73 2
03:00 0 J/kg -2.6 K 0 % 0 % 0 % 0 m²/s² 0 0 -2.33 2
04:00 0 J/kg -2.1 K 0 % 0 % 0 % 0 m²/s² 0 0 -1.41 1
05:00 0 J/kg -2.0 K 0 % 0 % 0 % 0 m²/s² 0 0 -1.13 2
06:00 0 J/kg -1.6 K 0 % 0 % 0 % 0 m²/s² 0 0 -1.15 2
07:00 0 J/kg -2.1 K 0 % 0 % 0 % 0 m²/s² 0 0 -1.65 2
08:00 54 J/kg -1.8 K 0 % 0 % 0 % 0 m²/s² 0 0 -1.23 1
09:00 13 J/kg -2.0 K 0 % 0 % 0 % 0 m²/s² 0 0 -1.19 2
10:00 0 J/kg -2.0 K 0 % 0 % 0 % 0 m²/s² 0 0 -0.83 1
11:00 91 J/kg -1.7 K 0 % 0 % 0 % 0 m²/s² 0 0 -0.89 2
12:00 315 J/kg -1.7 K 0 % 0 % 0 % 0 m²/s² 0 0 -0.83 1
13:00 548 J/kg -2.5 K 0 % 0 % 0 % 0 m²/s² 0 0 -0.91 1
14:00 792 J/kg -3.4 K 0 % 0 % 0 % 0 m²/s² 0 0 -1.24 1
15:00 1085 J/kg -4.4 K 0 % 0 % 0 % 0 m²/s² 0 0 -1.16 3
16:00 1309 J/kg -5.2 K 0 % 0 % 0 % 0 m²/s² 0 0 -1.39 3
17:00 1336 J/kg -5.4 K 0 % 0 % 0 % 0 m²/s² 0 0 -1.68 80
18:00 1572 J/kg -6.2 K 0 % 0 % 0 % 0 m²/s² 0 0 -2.57 3
19:00 1827 J/kg -6.5 K 0 % 0 % 0 % 0 m²/s² 0 0 -2.99 3
20:00 69 J/kg -5.3 K 0 % 0 % 0 % 0 m²/s² 0 0 -1.4 3
21:00 2 J/kg -4.8 K 0 % 0 % 0 % 0 m²/s² 0 0 -0.78 0
22:00 0 J/kg 0.7 K 0 % 0 % 0 % 0 m²/s² 0 0 4.21 2
23:00 0 J/kg -1.0 K 0 % 0 % 0 % 0 m²/s² 0 0 1.43 3
 05:32     20:31    Daglengte: 14:59 Zaterdag 31 Jul
00:00 0 J/kg 0.1 K 0 % 0 % 0 % 0 m²/s² 0 0 2.05 3
01:00 0 J/kg -0.3 K 0 % 0 % 0 % 0 m²/s² 0 0 1.26 2
02:00 0 J/kg 0.5 K 0 % 0 % 0 % 0 m²/s² 0 0 2.15 2
03:00 0 J/kg 1.4 K 0 % 0 % 0 % 0 m²/s² 0 0 2.48 3
04:00 0 J/kg 2.5 K 0 % 0 % 0 % 0 m²/s² 0 0 3.22 3
05:00 0 J/kg 1.6 K 0 % 0 % 0 % 0 m²/s² 0 0 2.47 3
06:00 0 J/kg 1.2 K 0 % 0 % 0 % 0 m²/s² 0 0 2.37 3
07:00 0 J/kg 0.5 K 0 % 0 % 0 % 0 m²/s² 0 0 1.19 3
08:00 0 J/kg 0.0 K 0 % 0 % 0 % 0 m²/s² 0 0 0.27 3
09:00 26 J/kg -0.8 K 0 % 0 % 0 % 0 m²/s² 0 0 -0.53 80
10:00 107 J/kg -1.1 K 0 % 0 % 0 % 0 m²/s² 0 0 -0.83 80
11:00 333 J/kg -2.1 K 0 % 0 % 0 % 0 m²/s² 0 0 -1.62 95
12:00 523 J/kg -2.8 K 0 % 0 % 0 % 0 m²/s² 0 0 -1.72 80
13:00 625 J/kg -3.1 K 0 % 0 % 0 % 0 m²/s² 0 0 -2.02 3
14:00 566 J/kg -2.9 K 0 % 0 % 0 % 0 m²/s² 0 0 -1.82 3
15:00 501 J/kg -2.6 K 0 % 0 % 0 % 0 m²/s² 0 0 -1.01 3
16:00 538 J/kg -3.8 K 0 % 0 % 0 % 0 m²/s² 0 0 -2.63 3
17:00 191 J/kg -2.0 K 0 % 0 % 0 % 0 m²/s² 0 0 -0.83 3
18:00 416 J/kg -3.4 K 0 % 0 % 0 % 0 m²/s² 0 0 -1.18 3
19:00 427 J/kg -3.9 K 0 % 0 % 0 % 0 m²/s² 0 0 -1.53 3
20:00 256 J/kg -2.4 K 0 % 0 % 0 % 0 m²/s² 0 0 -1.44 3
21:00 61 J/kg -2.2 K 0 % 0 % 0 % 0 m²/s² 0 0 -1.48 3
22:00 0 J/kg -2.7 K 0 % 0 % 0 % 0 m²/s² 0 0 -1.47 3
23:00 29 J/kg -2.1 K 0 % 0 % 0 % 0 m²/s² 0 0 -0.48 3
 05:33     20:30    Daglengte: 14:57 Zondag 01 Aug
00:00 180 J/kg -2.4 K 0 % 0 % 0 % 0 m²/s² 0 0 -1.26 3
01:00 145 J/kg -2.8 K 0 % 0 % 0 % 0 m²/s² 0 0 -0.37 3
02:00 97 J/kg -3.0 K 0 % 0 % 0 % 0 m²/s² 0 0 -0.51 3
03:00 0 J/kg -2.0 K 0 % 0 % 0 % 0 m²/s² 0 0 -0.26 3
04:00 1 J/kg -2.4 K 0 % 0 % 0 % 0 m²/s² 0 0 -1.53 2
05:00 0 J/kg -3.0 K 0 % 0 % 0 % 0 m²/s² 0 0 -2.46 80
06:00 0 J/kg -1.6 K 0 % 0 % 0 % 0 m²/s² 0 0 -0.13 3
07:00 0 J/kg -2.4 K 0 % 0 % 0 % 0 m²/s² 0 0 -1.59 3
08:00 0 J/kg -2.0 K 0 % 0 % 0 % 0 m²/s² 0 0 -1.73 3
09:00 0 J/kg -2.1 K 0 % 0 % 0 % 0 m²/s² 0 0 -0.45
10:00 0 J/kg -2.9 K 0 % 0 % 0 % 0 m²/s² 0 0 -0.47
11:00 0 J/kg -2.3 K 0 % 0 % 0 % 0 m²/s² 0 0 0.22
Temp Baro Wind Neerslag
  EWN Forecast EWN WRFDA DWD ICON FMI HIRLAM MET Norway GFS
 05:29     20:34    Daglengte: 15:05 Vandaag
14:00 28.3° 1014.2 hPa 2.5 m/s 0.0 mm 27.9° 1013.7 hPa 0.8 m/s 0.0 mm 29.1° 1013.8 hPa 2.6 m/s 0.0 mm 28.5° 1014.3 hPa 1.8 m/s 0.0 mm 29.3° 1013.8 hPa 2.5 m/s
17:00 28.7° 1012.5 hPa 2.6 m/s 0.0 mm 29.4° 1011.5 hPa 1.6 m/s 0.0 mm 29.5° 1012.4 hPa 2.3 m/s 0.0 mm 28.6° 1012.6 hPa 2.7 m/s 0.0 mm 28.6° 1012.6 hPa 1.3 m/s
20:00 26.2° 1012.2 hPa 2.1 m/s 0.0 mm 26.3° 1010.6 hPa 2.0 m/s 0.0 mm 27.1° 1011.9 hPa 0.9 m/s 0.0 mm 25.6° 1012.4 hPa 2.3 m/s 0.0 mm 25.7° 1012.5 hPa 0.8 m/s
23:00 23.3° 1012.8 hPa 1.6 m/s 0.0 mm 24.7° 1011.6 hPa 3.1 m/s 0.0 mm 24.2° 1012.7 hPa 0.6 m/s 0.0 mm 21.0° 1013.4 hPa 1.9 m/s 0.0 mm 22.6° 1013.3 hPa 1.4 m/s
 05:31     20:33    Daglengte: 15:02 Morgen
02:00 20.8° 1012.5 hPa 2.1 m/s 0.0 mm 23.5° 1011.1 hPa 5.1 m/s 0.1 mm 20.3° 1012.6 hPa 0.8 m/s 0.0 mm 20.1° 1013.1 hPa 2.2 m/s 0.0 mm 21.0° 1013.6 hPa 1.4 m/s
05:00 19.8° 1012.4 hPa 1.4 m/s 0.0 mm 20.9° 1011.1 hPa 2.8 m/s 0.4 mm 19.0° 1012.4 hPa 0.7 m/s 0.0 mm 19.4° 1013.2 hPa 3.0 m/s 0.0 mm 18.6° 1013.6 hPa 1.6 m/s
08:00 21.0° 1012.8 hPa 1.8 m/s 0.0 mm 22.7° 1012.3 hPa 4.5 m/s 1.4 mm 23.0° 1012.6 hPa 0.1 m/s 0.0 mm 20.4° 1013.2 hPa 2.0 m/s 0.0 mm 21.1° 1013.6 hPa 1.0 m/s
11:00 26.3° 1012.4 hPa 1.8 m/s 0.0 mm 26.6° 1011.7 hPa 1.9 m/s 1.4 mm 27.6° 1012.4 hPa 1.9 m/s 0.0 mm 27.0° 1012.2 hPa 2.2 m/s 0.0 mm 27.0° 1012.4 hPa 1.5 m/s
14:00 29.6° 1010.2 hPa 1.8 m/s 0.0 mm 29.6° 1009.8 hPa 1.5 m/s 1.4 mm 31.6° 1010.1 hPa 1.3 m/s 0.0 mm 30.1° 1010.0 hPa 2.2 m/s 0.0 mm 31.7° 1009.8 hPa 1.9 m/s
17:00 28.5° 1008.9 hPa 2.3 m/s 0.0 mm 31.3° 1007.4 hPa 2.1 m/s 1.4 mm 26.7° 1009.7 hPa 2.3 m/s 0.6 mm 31.3° 1008.1 hPa 2.7 m/s 0.0 mm 30.6° 1008.2 hPa 1.3 m/s
20:00 27.1° 1008.1 hPa 1.6 m/s 0.0 mm 25.8° 1007.6 hPa 3.9 m/s 3.0 mm 27.4° 1008.8 hPa 0.9 m/s 0.0 mm 27.4° 1007.9 hPa 1.4 m/s 0.0 mm 23.6° 1009.2 hPa 2.3 m/s
23:00 22.1° 1008.4 hPa 1.7 m/s 0.0 mm 22.7° 1008.4 hPa 3.7 m/s 5.6 mm 21.9° 1009.1 hPa 1.3 m/s 0.0 mm 21.7° 1008.4 hPa 1.5 m/s 0.0 mm 22.7° 1008.4 hPa 1.6 m/s
 05:32     20:31    Daglengte: 14:59 Zaterdag 31 Jul
02:00 20.3° 1007.6 hPa 1.3 m/s 0.0 mm 20.9° 1007.8 hPa 2.6 m/s 5.6 mm 20.2° 1008.8 hPa 1.1 m/s 0.0 mm 19.6° 1007.5 hPa 1.7 m/s 0.0 mm 21.9° 1008.2 hPa 1.1 m/s
05:00 20.2° 1007.1 hPa 2.1 m/s 0.9 mm 20.5° 1006.8 hPa 2.1 m/s 5.6 mm 18.7° 1008.8 hPa 1.0 m/s 0.0 mm 20.1° 1008.8 hPa 2.8 m/s
08:00 22.0° 1009.5 hPa 5.3 m/s 3.0 mm 23.3° 1009.3 hPa 5.1 m/s 5.6 mm 22.3° 1010.5 hPa 2.2 m/s 0.1 mm 19.0° 1010.3 hPa 3.9 m/s
11:00 22.3° 1010.5 hPa 5.0 m/s 7.2 mm 26.1° 1009.9 hPa 5.4 m/s 5.6 mm 21.8° 1010.6 hPa 2.6 m/s 2.6 mm 25.1° 1010.6 hPa 4.3 m/s
14:00 25.0° 1009.6 hPa 3.9 m/s 0.8 mm 28.3° 1008.7 hPa 4.0 m/s 5.6 mm 24.0° 1009.6 hPa 2.2 m/s 0.3 mm 27.7° 1009.6 hPa 4.3 m/s
17:00 24.5° 1009.3 hPa 2.0 m/s 0.0 mm 20.6° 1009.6 hPa 1.6 m/s 18.6 mm 25.1° 1008.2 hPa 1.4 m/s 0.0 mm 27.2° 1009.4 hPa 3.2 m/s
20:00 22.9° 1008.9 hPa 2.3 m/s 0.0 mm 20.9° 1008.7 hPa 2.5 m/s 46.4 mm 24.4° 1008.5 hPa 0.6 m/s 0.0 mm 21.9° 1009.2 hPa 2.9 m/s
23:00 21.3° 1008.9 hPa 2.5 m/s 5.5 mm 21.3° 1008.5 hPa 2.5 m/s 47.1 mm 21.8° 1008.5 hPa 0.5 m/s 0.0 mm 20.4° 1010.5 hPa 1.6 m/s
 05:33     20:30    Daglengte: 14:57 Zondag 01 Aug
02:00 19.5° 1008.4 hPa 1.8 m/s 10.7 mm 18.6° 1008.1 hPa 2.4 m/s 47.1 mm 20.4° 1007.8 hPa 0.9 m/s 0.1 mm 20.0° 1009.9 hPa 1.0 m/s
05:00 19.1° 1006.2 hPa 1.6 m/s 5.6 mm 17.6° 1007.7 hPa 3.0 m/s 47.1 mm 19.5° 1005.8 hPa 1.2 m/s 0.6 mm 18.7° 1008.2 hPa 1.1 m/s
08:00 19.8° 1005.0 hPa 2.9 m/s 0.0 mm 17.5° 1007.9 hPa 4.0 m/s 47.9 mm 20.4° 1004.3 hPa 2.6 m/s 0.0 mm 19.8° 1007.4 hPa 1.2 m/s
11:00 20.8° 1005.8 hPa 4.9 m/s 48.2 mm 20.8° 1005.8 hPa 4.9 m/s 48.2 mm 21.1° 1006.8 hPa 1.5 m/s
14:00 24.7° 1003.6 hPa 3.5 m/s 48.2 mm 24.7° 1003.6 hPa 3.5 m/s 48.2 mm 16.5° 1008.9 hPa 5.5 m/s
17:00 15.9° 1010.0 hPa 7.0 m/s 28.9 mm 15.9° 1010.0 hPa 7.0 m/s 28.9 mm
20:00 15.2° 1011.4 hPa 6.2 m/s 31.8 mm 15.2° 1011.4 hPa 6.2 m/s 31.8 mm
23:00 14.8° 1012.5 hPa 5.2 m/s 31.8 mm 14.8° 1012.5 hPa 5.2 m/s 31.8 mm
 05:34     20:28    Daglengte: 14:54 Maandag 02 Aug
02:00 15.3° 1012.8 hPa 5.1 m/s 31.8 mm 15.3° 1012.8 hPa 5.1 m/s 31.8 mm
05:00 15.7° 1013.7 hPa 3.7 m/s 31.8 mm 15.7° 1013.7 hPa 3.7 m/s 31.8 mm
08:00 18.0° 1014.5 hPa 3.9 m/s 31.8 mm 18.0° 1014.5 hPa 3.9 m/s 31.8 mm
11:00 22.7° 1015.0 hPa 4.8 m/s 31.8 mm 22.7° 1015.0 hPa 4.8 m/s 31.8 mm
14:00 25.2° 1014.4 hPa 4.4 m/s 31.8 mm 25.2° 1014.4 hPa 4.4 m/s 31.8 mm
17:00 25.5° 1013.9 hPa 2.9 m/s 31.8 mm 25.5° 1013.9 hPa 2.9 m/s 31.8 mm
20:00 21.8° 1014.4 hPa 1.8 m/s 31.8 mm 21.8° 1014.4 hPa 1.8 m/s 31.8 mm
23:00 19.0° 1015.6 hPa 1.4 m/s 31.8 mm 19.0° 1015.6 hPa 1.4 m/s 31.8 mm
 05:36     20:27    Daglengte: 14:51 Dinsdag 03 Aug
02:00 18.2° 1016.3 hPa 1.2 m/s 31.8 mm 18.2° 1016.3 hPa 1.2 m/s 31.8 mm
05:00 17.7° 1016.3 hPa 0.5 m/s 31.8 mm 17.7° 1016.3 hPa 0.5 m/s 31.8 mm
08:00 18.5° 1017.4 hPa 0.1 m/s 32.5 mm 18.5° 1017.4 hPa 0.1 m/s 32.5 mm
11:00 20.5° 1017.6 hPa 0.6 m/s 33.6 mm 20.5° 1017.6 hPa 0.6 m/s 33.6 mm
14:00 24.5° 1015.8 hPa 1.4 m/s 33.7 mm 24.5° 1015.8 hPa 1.4 m/s 33.7 mm
17:00 26.1° 1013.6 hPa 1.2 m/s 33.7 mm 26.1° 1013.6 hPa 1.2 m/s 33.7 mm
20:00 22.7° 1013.0 hPa 2.1 m/s 33.7 mm 22.7° 1013.0 hPa 2.1 m/s 33.7 mm
23:00 20.3° 1013.6 hPa 0.4 m/s 33.7 mm 20.3° 1013.6 hPa 0.4 m/s 33.7 mm
 05:37     20:25    Daglengte: 14:48 Woensdag 04 Aug
02:00 18.1° 1013.2 hPa 1.3 m/s 34.6 mm 18.1° 1013.2 hPa 1.3 m/s 34.6 mm
05:00 17.1° 1012.3 hPa 1.0 m/s 34.7 mm 17.1° 1012.3 hPa 1.0 m/s 34.7 mm
08:00 18.7° 1012.8 hPa 0.8 m/s 34.7 mm 18.7° 1012.8 hPa 0.8 m/s 34.7 mm
11:00 21.8° 1012.4 hPa 1.3 m/s 34.7 mm 21.8° 1012.4 hPa 1.3 m/s 34.7 mm
14:00 26.5° 1011.3 hPa 0.4 m/s 34.7 mm 26.5° 1011.3 hPa 0.4 m/s 34.7 mm
17:00 26.4° 1010.8 hPa 3.3 m/s 34.7 mm 26.4° 1010.8 hPa 3.3 m/s 34.7 mm
20:00 21.8° 1012.1 hPa 4.5 m/s 34.7 mm 21.8° 1012.1 hPa 4.5 m/s 34.7 mm
23:00 19.5° 1012.5 hPa 3.0 m/s 34.9 mm 19.5° 1012.5 hPa 3.0 m/s 34.9 mm
 05:38     20:24    Daglengte: 14:46 Donderdag 05 Aug
02:00 18.2° 1012.7 hPa 2.7 m/s 35.8 mm 18.2° 1012.7 hPa 2.7 m/s 35.8 mm
05:00 17.3° 1012.5 hPa 3.5 m/s 36.4 mm 17.3° 1012.5 hPa 3.5 m/s 36.4 mm
08:00 17.9° 1012.8 hPa 3.5 m/s 36.6 mm 17.9° 1012.8 hPa 3.5 m/s 36.6 mm
11:00 19.5° 1013.3 hPa 5.0 m/s 36.7 mm 19.5° 1013.3 hPa 5.0 m/s 36.7 mm
14:00 21.9° 1012.8 hPa 6.0 m/s 36.7 mm 21.9° 1012.8 hPa 6.0 m/s 36.7 mm
20:00 18.8° 1012.7 hPa 5.3 m/s 36.7 mm 18.8° 1012.7 hPa 5.3 m/s 36.7 mm
 05:40     20:22    Daglengte: 14:42 Vrijdag 06 Aug
02:00 15.6° 1013.7 hPa 3.0 m/s 36.7 mm 15.6° 1013.7 hPa 3.0 m/s 36.7 mm
08:00 17.2° 1012.0 hPa 2.4 m/s 36.7 mm 17.2° 1012.0 hPa 2.4 m/s 36.7 mm
14:00 16.4° 1010.3 hPa 1.4 m/s 39.2 mm 16.4° 1010.3 hPa 1.4 m/s 39.2 mm
20:00 15.7° 1010.2 hPa 5.1 m/s 43.4 mm 15.7° 1010.2 hPa 5.1 m/s 43.4 mm
 05:41     20:21    Daglengte: 14:40 Zaterdag 07 Aug
02:00 15.2° 1011.9 hPa 4.5 m/s 46.2 mm 15.2° 1011.9 hPa 4.5 m/s 46.2 mm
08:00 15.7° 1013.9 hPa 4.7 m/s 47.6 mm 15.7° 1013.9 hPa 4.7 m/s 47.6 mm
14:00 23.9° 1014.6 hPa 4.1 m/s 47.6 mm 23.9° 1014.6 hPa 4.1 m/s 47.6 mm
20:00 20.5° 1014.7 hPa 1.6 m/s 47.6 mm 20.5° 1014.7 hPa 1.6 m/s 47.6 mm
 05:42     20:19    Daglengte: 14:37 Zondag 08 Aug
02:00 17.1° 1014.5 hPa 1.5 m/s 47.6 mm 17.1° 1014.5 hPa 1.5 m/s 47.6 mm
08:00 19.7° 1017.3 hPa 1.8 m/s 0.0 mm
14:00 27.2° 1016.5 hPa 0.9 m/s 0.3 mm
20:00 23.4° 1016.2 hPa 0.9 m/s 0.0 mm
 05:44     20:18    Daglengte: 14:34 Maandag 09 Aug
02:00 18.9° 1018.1 hPa 1.3 m/s 0.2 mm
08:00 20.6° 1018.7 hPa 1.0 m/s 0.0 mm
14:00 28.6° 1017.6 hPa 0.6 m/s 0.2 mm
20:00 23.9° 1017.4 hPa 1.4 m/s 0.5 mm
 05:45     20:16    Daglengte: 14:31 Dinsdag 10 Aug
02:00 19.7° 1019.0 hPa 2.0 m/s 0.5 mm
08:00 20.9° 1019.8 hPa 2.4 m/s 0.2 mm
14:00 29.1° 1018.3 hPa 2.1 m/s 0.2 mm
20:00 24.4° 1017.6 hPa 1.8 m/s 0.6 mm
 05:46     20:14    Daglengte: 14:28 Woensdag 11 Aug
02:00 19.7° 1019.6 hPa 2.4 m/s 0.6 mm
08:00 20.7° 1020.1 hPa 2.4 m/s 0.3 mm
14:00 28.2° 1018.2 hPa 2.2 m/s 0.3 mm
20:00 23.1° 1017.8 hPa 2.7 m/s 0.5 mm
 05:48     20:13    Daglengte: 14:25 Donderdag 12 Aug
02:00 18.8° 1019.3 hPa 2.3 m/s 0.6 mm
08:00 20.0° 1019.2 hPa 2.0 m/s 0.2 mm
14:00 28.0° 1017.0 hPa 1.4 m/s 0.4 mm
20:00 23.6° 1016.0 hPa 1.7 m/s 0.3 mm
 05:49     20:11    Daglengte: 14:22 Vrijdag 13 Aug
02:00 19.1° 1017.3 hPa 2.1 m/s 1.7 mm
08:00 20.0° 1017.5 hPa 2.4 m/s 0.3 mm
FMI Hirlam - 7.5 km EWN WRFDA - 12 km DWD ICON - 7 km GFS - 25 km Basiskaart






























































Updatetijd (Europe/Amsterdam) Resolutie Lengte Stap
FMI Hirlam 07:00, 13:00, 19:00, 01:00 7.5 km 49h 1h
EWN WRFDA 10:15, 16:15, 22:15, 04:15 12 km 73h 1h
DWD ICON 06:15, 12:15, 18:15, 00:15 7 km 75h 1h
GFS 08:15, 14:15, 20:15, 02:15 25 km 237h 3h
30+ mm
25-30 mm
20-25 mm
15-20 mm
10-15 mm
6-10 mm
4-6 mm
2-4 mm
1-2 mm
0.5-1 mm
0.2-0.5 mm
0.1-0.2 mm
30+ mm
25-30 mm
20-25 mm
15-20 mm
10-15 mm
6-10 mm
4-6 mm
2-4 mm
1-2 mm
0.5-1 mm
0.2-0.5 mm
0.1-0.2 mm
Sneeuwval
Natte sneeuw
Hagel
Vorst
30+ mm
25-30 mm
20-25 mm
15-20 mm
10-15 mm
6-10 mm
4-6 mm
2-4 mm
1-2 mm
0.5-1 mm
0.2-0.5 mm
0.1-0.2 mm
Sneeuwval
Natte sneeuw
Hagel
Vorst
Onweer
50 mm
40 mm
30 mm
26 mm
22 mm
18 mm
14 mm
10 mm
9 mm
8 mm
7 mm
6 mm
5 mm
4.5 mm
4 mm
3.5 mm
3 mm
2.5 mm
2 mm
1.5 mm
1 mm
0.8 mm
0.6 mm
0.4 mm
0.2 mm
0.05 mm
35°
30°
25°
20°
15°
10°
-5°
-10°
-15°
-20°
-25°
-30°
-35°
33> m/s
29 m/s
25 m/s
21 m/s
17 m/s
14 m/s
11 m/s
8 m/s
5 m/s
3 m/s
0 m/s
2600 J/kg
2400 J/kg
2200 J/kg
2000 J/kg
1800 J/kg
1600 J/kg
1400 J/kg
1200 J/kg
1000 J/kg
800 J/kg
600 J/kg
400 J/kg
200 J/kg
70 dBZ
65 dBZ
60 dBZ
55 dBZ
50 dBZ
45 dBZ
40 dBZ
35 dBZ
30 dBZ
25 dBZ
20 dBZ
15 dBZ
10 dBZ
5 dBZ
-1 K
-2 K
-3 K
-4 K
-5 K
-6 K
-7 K
-8 K
-9 K
950 m²/s²
900 m²/s²
850 m²/s²
800 m²/s²
750 m²/s²
700 m²/s²
650 m²/s²
600 m²/s²
550 m²/s²
500 m²/s²
450 m²/s²
400 m²/s²
350 m²/s²
300 m²/s²
250 m²/s²
200 m²/s²
150 m²/s²
100 m²/s²
46 m/s
44 m/s
42 m/s
40 m/s
38 m/s
36 m/s
34 m/s
32 m/s
30 m/s
28 m/s
26 m/s
24 m/s
22 m/s
20 m/s
16 m/s
12 m/s
8 m/s
4 m/s
30 m/s
28 m/s
26 m/s
24 m/s
22 m/s
20 m/s
18 m/s
16 m/s
14 m/s
12 m/s
10 m/s
8 m/s
6 m/s
4 m/s
2 m/s
3.0
2.8
2.6
2.4
2.2
2.0
1.8
1.6
1.4
1.2
1.0
0.8
0.6
0.4
0.2
15
14
13
12
11
10
9
8
7
6
5
4
3
2
1
90%
80%
70%
60%
50%
40%
30%
20%
10%
42
40
38
36
34
32
30
28
26
24
22
20
18
16
14
12
90+ cm
80-90 cm
70-80 cm
60-70 cm
50-60 cm
40-50 cm
30-40 cm
20-30 cm
10-20 cm
1-10 cm
Sneeuwval
Natte sneeuw
Regen
>120 mm
115 mm
110 mm
105 mm
100 mm
95 mm
90 mm
85 mm
80 mm
75 mm
70 mm
65 mm
60 mm
55 mm
50 mm
45 mm
45 mm
40 mm
35 mm
30 mm
25 mm
20 mm
15 mm
10 mm
5 mm
0.1 mm
960 hPa
880 hPa
800 hPa
720 hPa
640 hPa
560 hPa
584 gpdm
568 gpdm
552 gpdm
536 gpdm
520 gpdm
504 gpdm
488 gpdm
Extreem zwaar Noodweer Kans op onweer
15% 15% 5% 50% 15%

Dag




Kaart






35°
30°
25°
20°
15°
10°
-5°
-10°
-15°
-20°
-25°
-30°
-35°
33> m/s
29 m/s
25 m/s
21 m/s
17 m/s
14 m/s
11 m/s
8 m/s
5 m/s
3 m/s
0 m/s
Extreem zwaar Noodweer Kans op onweer
15% 15% 5% 50% 15%